[[{"header":{"parameterUnit":"m.s-1","parameterCategory":1,"la1":30.2991,"la2":30.254,"lo1":-89.0895,"lo2":-89.0444,"dy":0.0017,"dx":0.0017,"nx":28,"ny":28,"refTime":"2025-09-09T09:00:00:Z","depth":0,"parameterNumber":2,"parameterNumberName":"U-component_of_WINDS"},"data":[0,0,0,0,0,0,0,0,0,0,0,0,0,0,0,0,0,0,0,0,0,0,0,0,0,0,0,0,0,0,0,0,0,0,0,0,0,0,0,0,0,0,0,0,0,0,0,0,0,0,0,0,0,0,0,0,0,0,-1.9299,-1.9301,0,-1.9549,-1.9552,-1.9555,-1.958,-1.9577,-1.9575,-1.9572,-1.9839,-1.9848,-1.9858,0,0,0,0,0,0,0,0,0,0,0,0,0,-1.8851,-1.8859,-1.9298,-1.9302,-1.9305,-1.9549,-1.9552,-1.9556,-1.9581,-1.9577,-1.9574,-1.9571,-1.9836,-1.9847,-1.9858,0,0,0,0,0,0,0,0,0,0,0,0,0,-1.9068,-1.8862,-1.9298,-1.9346,-1.9353,-1.9548,-1.9552,-1.9557,-1.9581,-1.9577,-1.9573,-1.957,-1.9832,-1.9846,-1.986,-2.0027,0,0,-1.9904,-1.991,0,0,0,0,0,0,0,0,-1.9056,-1.9085,-1.9336,-1.9343,-1.9351,-1.9529,-1.9492,-1.9715,-1.9582,-1.9495,-1.9572,-1.9568,-1.974,-1.9761,-1.9817,-2.0039,-2.0051,-1.9905,-1.9914,-1.992,-1.9924,0,0,0,0,0,0,0,-1.9041,-1.9074,-1.9398,-1.934,-1.9349,-1.9359,-1.9385,-1.9535,-1.9637,-1.9502,-1.9505,-1.9533,-1.9743,-1.9803,-1.9824,-2.0055,-1.9905,-1.9917,-1.9926,-1.9932,-2.0429,-2.0434,0,0,0,0,0,0,-1.9015,-1.9061,-1.939,-1.9405,-1.9191,-1.937,-1.94,-1.9476,-1.9635,-1.9655,-1.9537,-1.9534,-1.9781,-1.9807,-1.9833,-2.0041,-1.992,-1.9933,-1.9941,-2.0425,-2.0431,-2.0436,0,0,0,0,0,0,-1.9006,-1.9044,-1.938,-1.9234,-1.9278,-1.9382,-1.9468,-1.9483,-1.9543,-1.9661,-1.968,-1.9579,-1.9779,-1.9813,-1.9979,-2.0051,-1.994,-1.9953,-2.0419,-2.0427,-2.0433,-2.0457,0,0,0,0,0,0,-1.8993,-1.9041,-1.9103,-1.9235,-1.9285,-1.9518,-1.9472,-1.9491,-1.9567,-1.9565,-1.9705,-1.9725,-1.9778,-1.9957,-1.9993,-2.0068,-1.9964,-2.0414,-2.0423,-2.0431,-2.045,-2.0463,-2.0475,0,0,0,0,0,-1.8977,-1.9101,-1.9106,-1.9145,-1.9364,-1.9522,-1.9551,-1.9607,-1.9572,-1.9638,-1.9713,-1.9721,-2.0036,-1.9974,-2.0014,-2.0095,-2.0409,-2.042,-2.043,-2.0444,-2.0461,-2.0475,0,0,0,0,0,0,-1.8978,-1.9119,-1.9126,-1.9296,-1.9397,-1.9526,-1.961,-1.9622,-1.9737,-1.9732,-1.9799,-1.9831,-1.9994,-2.0061,-1.9989,-2.0266,-2.022,-2.0239,-2.0217,-2.0233,-2.0246,-2.0227,-1.9976,0,0,0,0,0,-1.8997,-1.911,-1.9229,-1.9368,-1.9418,-1.9505,-1.9576,-1.961,-1.9718,-1.9761,-1.9849,-1.9956,-2.008,-2.016,-2.028,-2.0459,-2.0492,-2.0535,-2.0547,-2.0557,-2.0574,-2.0676,-2.0697,-2.047,-2.047,-2.047,0,0,-1.904,-1.9131,-1.9199,-1.9371,-1.9452,-1.9571,-1.9541,-1.9667,-1.9757,-1.9782,-1.9943,-2.0011,-2.0135,-2.0308,-2.0389,-2.037,-2.0643,-2.057,-2.0577,-2.0589,-2.0689,-2.0711,-2.073,-2.0477,-2.0476,-2.0475,0,0,-1.9179,-1.9257,-1.9383,-1.9465,-1.9588,-1.9645,-1.9675,-1.9802,-1.9848,-2.001,-2.0031,-2.0141,-2.0351,-2.044,-2.0512,-2.0684,-2.0697,-2.0722,-2.0789,-2.0888,-2.0906,-2.0922,-2.0986,-2.1008,-2.0737,-2.0738,-2.0738,0,-1.9217,-1.9394,-1.9447,-1.9573,-1.9649,-1.9673,-1.9803,-1.9881,-2.0038,-2.0092,-2.0066,-2.0332,-2.0417,-2.0613,-2.0654,-2.0711,-2.0751,-2.0707,-2.0898,-2.0915,-2.0931,-2.0993,-2.1017,-2.074,-2.074,-2.0739,-2.0739,0,-1.9436,-1.9559,-1.9646,-1.9794,-1.988,-2.0007,-2.0082,-2.0164,-2.019,-2.0251,-2.0418,-2.0521,-2.0663,-2.0711,-2.074,-2.0912,-2.0896,-2.0883,-2.0839,-2.0954,-2.1014,-2.1038,-2.0743,-2.0743,-2.0742,-2.0741,0,0,-1.9584,-1.9759,-1.979,-1.9858,-1.9996,-2.0093,-2.0223,-2.0359,-2.0428,-2.0536,-2.0649,-2.0827,-2.0816,-2.0898,-2.0937,-2.1024,-2.1157,-2.1001,-2.1005,-2.1029,-2.1356,-2.1366,-2.1393,-2.1165,-2.1169,-2.1173,-2.1347,0,-1.974,-1.9968,-2.002,-2.0217,-2.0333,-2.0358,-2.0471,-2.057,-2.063,-2.074,-2.0808,-2.0933,-2.0908,-2.0958,-2.1045,-2.1122,-2.1224,-2.111,-2.1274,-2.1279,-2.1244,-2.1423,-2.1435,-2.1593,-2.137,-2.1374,-2.1377,0,-1.9953,-2.0063,-2.0271,-2.0394,-2.0444,-2.0545,-2.0675,-2.0777,-2.0891,-2.0929,-2.1021,-2.1051,-2.119,-2.1136,-2.1332,-2.1253,-2.1323,-2.1371,-2.1379,-2.1399,-2.1337,-2.1451,-2.1645,-2.167,-2.1414,-2.1411,-2.1408,0,-2.0043,-2.0243,-2.0394,-2.0451,-2.0598,-2.0668,-2.0733,-2.0842,-2.0921,-2.1036,-2.1088,-2.1218,-2.129,-2.1392,-2.1458,-2.1412,-2.1649,-2.16,-2.1688,-2.1687,-2.1739,-2.1735,-2.195,-2.178,-2.178,-2.1779,-2.1779,0,-2.0213,-2.034,-2.0436,-2.0529,-2.0673,-2.0732,-2.0875,-2.0941,-2.1037,-2.1147,-2.1176,-2.1279,-2.1358,-2.1473,-2.1525,-2.1681,-2.1713,-2.175,-2.1763,-2.1749,-2.1744,-2.1798,-2.1789,-2.1785,-2.1784,-2.1783,-2.1782,0,-2.0339,-2.0407,-2.0574,-2.0698,-2.0733,-2.0834,-2.0943,-2.1036,-2.1096,-2.1234,-2.127,-2.1366,-2.1503,-2.1577,-2.1749,-2.1785,-2.1959,-2.1965,-2.192,-2.1926,-2.2011,-2.2003,-2.227,-2.2309,-2.211,-2.2112,-2.2113,0,-2.0444,-2.0542,-2.0677,-2.075,-2.0815,-2.0934,-2.1014,-2.1077,-2.1159,-2.1296,-2.1374,-2.1511,-2.1624,-2.1841,-2.1929,-2.2062,-2.2073,-2.2157,-2.2093,-2.2076,-2.2078,-2.2072,-2.2083,-2.2169,-2.2171,-2.2172,-2.2174,0,-2.0625,-2.0654,-2.0766,-2.0891,-2.0984,-2.1087,-2.1188,-2.1248,-2.1328,-2.142,-2.1558,-2.1645,-2.1819,-2.1957,-2.2096,-2.2167,-2.2186,-2.2192,-2.222,-2.2208,-2.2179,-2.2198,-2.1953,-2.2187,-2.2185,-2.2185,-2.2184,-2.2183,-2.0746,-2.0834,-2.0943,-2.1067,-2.115,-2.1244,-2.1337,-2.1409,-2.1524,-2.1668,-2.1699,-2.1846,-2.1959,-2.2147,-2.2222,-2.234,-2.2325,-2.2364,-2.2375,-2.2384,-2.2389,-2.2157,-2.2366,-2.2365,-2.2365,-2.2365,-2.2365,0,-2.093,-2.1,-2.1114,-2.1253,-2.1353,-2.1356,-2.1469,-2.1553,-2.168,-2.1783,-2.1893,-2.2053,-2.2186,-2.2284,-2.2421,-2.2497,-2.2509,-2.2531,-2.2527,-2.2544,-2.2394,-2.2357,-2.2519,-2.2519,-2.2519,-2.2519,-2.2519,-2.2519,-2.1037,-2.1188,-2.123,-2.1423,-2.1494,-2.1635,-2.1699,-2.1788,-2.187,-2.2046,-2.2155,-2.2217,-2.2319,-2.2463,-2.2587,-2.2613,-2.2664,-2.2685,-2.2712,-2.2571,-2.2554,-2.2539,-2.2505,-2.2695,-2.2695,-2.2853,-2.2854,-2.2856]},{"header":{"parameterUnit":"m.s-1","parameterCategory":1,"la1":30.2991,"la2":30.254,"lo1":-89.0895,"lo2":-89.0444,"dy":0.0017,"dx":0.0017,"nx":28,"ny":28,"refTime":"2025-09-09T09:00:00:Z","depth":0,"parameterNumber":3,"parameterNumberName":"V-component_of_WINDS"},"data":[0,0,0,0,0,0,0,0,0,0,0,0,0,0,0,0,0,0,0,0,0,0,0,0,0,0,0,0,0,0,0,0,0,0,0,0,0,0,0,0,0,0,0,0,0,0,0,0,0,0,0,0,0,0,0,0,0,0,-4.1705,-4.1705,0,-4.1661,-4.166,-4.166,-4.154,-4.1537,-4.1534,-4.1532,-4.1489,-4.149,-4.1492,0,0,0,0,0,0,0,0,0,0,0,0,0,-4.1689,-4.169,-4.1705,-4.1705,-4.1704,-4.1661,-4.166,-4.166,-4.154,-4.1537,-4.1534,-4.1531,-4.1489,-4.149,-4.1492,0,0,0,0,0,0,0,0,0,0,0,0,0,-4.1675,-4.169,-4.1706,-4.1639,-4.1633,-4.1661,-4.166,-4.166,-4.1541,-4.1537,-4.1533,-4.1529,-4.1488,-4.149,-4.1492,-4.1582,0,0,-4.1498,-4.1499,0,0,0,0,0,0,0,0,-4.1676,-4.1676,-4.165,-4.1644,-4.1637,-4.1602,-4.1639,-4.1634,-4.1542,-4.1576,-4.1532,-4.1527,-4.153,-4.1528,-4.1529,-4.158,-4.1578,-4.1498,-4.1499,-4.15,-4.1501,0,0,0,0,0,0,0,-4.1677,-4.1677,-4.1688,-4.1649,-4.1642,-4.1612,-4.1606,-4.1637,-4.1575,-4.1573,-4.1564,-4.156,-4.1526,-4.1527,-4.1527,-4.1577,-4.1498,-4.15,-4.1501,-4.1502,-4.1699,-4.1703,0,0,0,0,0,0,-4.1687,-4.1679,-4.1689,-4.1687,-4.1647,-4.1616,-4.1609,-4.1617,-4.1575,-4.1564,-4.1563,-4.1554,-4.1526,-4.1525,-4.1525,-4.1626,-4.15,-4.1502,-4.1503,-4.1695,-4.17,-4.1705,0,0,0,0,0,0,-4.1688,-4.169,-4.1691,-4.168,-4.1678,-4.162,-4.163,-4.1618,-4.1619,-4.1568,-4.1556,-4.1576,-4.1523,-4.1522,-4.1568,-4.1623,-4.1503,-4.1505,-4.169,-4.1697,-4.1702,-4.1831,0,0,0,0,0,0,-4.1688,-4.169,-4.1723,-4.1682,-4.1679,-4.1735,-4.1634,-4.162,-4.1622,-4.1611,-4.1576,-4.1567,-4.1519,-4.1566,-4.157,-4.1624,-4.1506,-4.1685,-4.1693,-4.17,-4.1822,-4.1841,-4.1857,0,0,0,0,0,-4.1687,-4.1762,-4.1726,-4.1728,-4.1719,-4.1739,-4.1737,-4.168,-4.1627,-4.166,-4.1627,-4.1568,-4.1617,-4.1572,-4.1575,-4.163,-4.1682,-4.1691,-4.17,-4.1814,-4.1837,-4.1857,0,0,0,0,0,0,-4.1813,-4.1756,-4.1714,-4.1778,-4.1764,-4.1718,-4.1758,-4.1707,-4.1708,-4.1697,-4.1627,-4.162,-4.1676,-4.1658,-4.1609,-4.1715,-4.1639,-4.165,-4.1725,-4.1746,-4.1764,-4.1767,-4.1508,0,0,0,0,0,-4.1848,-4.1868,-4.1817,-4.1878,-4.1872,-4.1817,-4.1823,-4.178,-4.1763,-4.1757,-4.1727,-4.1714,-4.1725,-4.1735,-4.1743,-4.1818,-4.1809,-4.1858,-4.1876,-4.1891,-4.1901,-4.1939,-4.196,-4.1735,-4.1735,-4.1735,0,0,-4.1921,-4.1892,-4.1909,-4.1902,-4.1886,-4.1908,-4.1813,-4.1841,-4.1857,-4.1761,-4.1803,-4.1781,-4.1761,-4.1822,-4.1847,-4.1808,-4.1961,-4.1903,-4.1915,-4.1916,-4.195,-4.1972,-4.1991,-4.1741,-4.174,-4.1739,0,0,-4.2064,-4.2045,-4.2093,-4.2078,-4.2055,-4.2017,-4.2029,-4.1991,-4.1972,-4.2012,-4.1941,-4.1959,-4.1982,-4.197,-4.1967,-4.2106,-4.2052,-4.2111,-4.2204,-4.2242,-4.226,-4.2275,-4.2324,-4.2343,-4.2121,-4.2121,-4.2121,0,-4.2158,-4.2188,-4.2124,-4.2156,-4.2155,-4.2069,-4.2117,-4.2107,-4.2088,-4.209,-4.2046,-4.2072,-4.2052,-4.2109,-4.2143,-4.2144,-4.2155,-4.2114,-4.2262,-4.2277,-4.229,-4.2336,-4.2355,-4.2128,-4.2128,-4.2127,-4.2126,0,-4.2304,-4.2326,-4.2367,-4.235,-4.2354,-4.2394,-4.2337,-4.2349,-4.2306,-4.2273,-4.2315,-4.2289,-4.229,-4.23,-4.2259,-4.2351,-4.2328,-4.2274,-4.2197,-4.232,-4.2362,-4.2379,-4.2139,-4.2136,-4.2134,-4.2132,0,0,-4.2526,-4.2472,-4.2488,-4.2479,-4.2446,-4.2462,-4.2499,-4.2499,-4.251,-4.25,-4.2529,-4.2549,-4.2499,-4.2496,-4.2453,-4.2486,-4.2597,-4.2428,-4.2426,-4.246,-4.2697,-4.2738,-4.2759,-4.2561,-4.2564,-4.2567,-4.2699,0,-4.2661,-4.2719,-4.2662,-4.2732,-4.2751,-4.2669,-4.2701,-4.2685,-4.2655,-4.2668,-4.2635,-4.2651,-4.2584,-4.2581,-4.261,-4.2578,-4.2644,-4.2567,-4.2588,-4.2589,-4.2595,-4.2781,-4.2824,-4.295,-4.2715,-4.2718,-4.272,0,-4.2826,-4.2822,-4.2894,-4.2856,-4.2862,-4.2891,-4.2886,-4.2899,-4.2879,-4.2855,-4.2852,-4.2799,-4.2832,-4.2757,-4.2802,-4.2751,-4.2756,-4.2742,-4.2745,-4.2745,-4.2662,-4.2786,-4.2989,-4.3008,-4.2745,-4.2743,-4.2741,0,-4.2981,-4.2993,-4.3037,-4.3032,-4.2989,-4.3011,-4.2995,-4.2971,-4.2974,-4.297,-4.2972,-4.2973,-4.2973,-4.2975,-4.2924,-4.2874,-4.2976,-4.2896,-4.2957,-4.2959,-4.2982,-4.2982,-4.3189,-4.2986,-4.2986,-4.2986,-4.2985,0,-4.3137,-4.3184,-4.3106,-4.3133,-4.3183,-4.3118,-4.3169,-4.3144,-4.3124,-4.3145,-4.3075,-4.3096,-4.3027,-4.3042,-4.3002,-4.3045,-4.3046,-4.3028,-4.3017,-4.3035,-4.3037,-4.3037,-4.3027,-4.2991,-4.2989,-4.2989,-4.2988,0,-4.3318,-4.3268,-4.331,-4.3265,-4.3255,-4.3294,-4.3256,-4.328,-4.3245,-4.3273,-4.3276,-4.3222,-4.3235,-4.3184,-4.319,-4.3163,-4.3227,-4.3202,-4.3234,-4.3226,-4.329,-4.3285,-4.3505,-4.353,-4.3311,-4.3313,-4.3315,0,-4.3422,-4.3455,-4.3414,-4.3422,-4.3409,-4.3424,-4.3427,-4.3364,-4.337,-4.3349,-4.3376,-4.3383,-4.3385,-4.3411,-4.3373,-4.3377,-4.335,-4.3427,-4.3351,-4.3367,-4.3352,-4.335,-4.3353,-4.3444,-4.3446,-4.3448,-4.345,0,-4.361,-4.3583,-4.3589,-4.3587,-4.3591,-4.3587,-4.3577,-4.3588,-4.3521,-4.3531,-4.3543,-4.3545,-4.355,-4.3558,-4.3554,-4.3537,-4.3483,-4.3475,-4.3489,-4.3507,-4.3524,-4.3516,-4.3277,-4.347,-4.3468,-4.3466,-4.3465,-4.3465,-4.3755,-4.3781,-4.3756,-4.3765,-4.375,-4.3743,-4.3763,-4.373,-4.3739,-4.3737,-4.3699,-4.3719,-4.3698,-4.3686,-4.3675,-4.369,-4.3654,-4.3675,-4.368,-4.3686,-4.3697,-4.3522,-4.3689,-4.3688,-4.3688,-4.3687,-4.3687,0,-4.394,-4.3919,-4.3928,-4.3916,-4.3923,-4.387,-4.3857,-4.3867,-4.3884,-4.3869,-4.3872,-4.3887,-4.3894,-4.3857,-4.3859,-4.3878,-4.3854,-4.3881,-4.3879,-4.3876,-4.3729,-4.3716,-4.3901,-4.3901,-4.3901,-4.3901,-4.3901,-4.3901,-4.4037,-4.4078,-4.4048,-4.4081,-4.406,-4.4078,-4.4075,-4.4068,-4.4055,-4.4073,-4.4079,-4.4054,-4.4029,-4.4029,-4.4034,-4.4023,-4.4027,-4.4064,-4.4044,-4.3908,-4.3887,-4.3867,-4.3854,-4.4065,-4.4065,-4.419,-4.4191,-4.4192]}]]